SL-14 R/B, 23005

Orbit data source: Space-Track

SL-14 R/B, 23005 is space debris in LEO originally from a launch on Sat, 12 Feb 1994 UTC launched from the Plesetsk Missile And Space Complex (PKMTR). Debris objects in space refer to the collection of defunct objects orbiting the Earth. Examples of debris include non-operational satellites, rocket bodies, and fragments generated from explosions, collisions, or faulty payload assembly.

Loading next visibility...
Identifier
23005, 1994-011G
Orbit
LEO
Last TLE update
14 hours ago
Origin
Manufacturer
Yuzhnoe
Mission
Spacecraft
Bus & Motor
S5M, Unknown motor
Mass
1,600 kg wet, 1,600 kg dry
Launch date (UTC)
1994-02-12 (31 years ago)
Launch vehicle
Unknown
Launch site
Plesetsk Missile And Space Complex (PKMTR)
Object type
Payload
Rocket body
Debris
Shape & HBR
Cyl, 2.7 m
Radar Cross Section
7.351 m², Large (>1 m²)

Expand to show TLE details & history

TLE from 14 hours ago
0 SL-14 R/B
1 23005U 94011G   25181.83909502  .00000029  00000-0  11557-3 0  9991
2 23005  82.5780 284.1703 0041380 178.0134 301.5545 12.55218823437674
Epoch: 2025-06-30T20:08Z
TLE epoch observation values (Epoch: 2025-06-30T20:08:17.809Z)
Latitude
60.07629°
Longitude
-130.06229°
Altitude
1,436.074 km
Speed
7.157 km/s
True Right ascension
06h 04m 37s
True Declination
59° 56' 25"
Sunlit
Object was in daylight at epoch
Visualization orbit readout
Latitude
-31.87396°
Longitude
-112.78798°
Altitude
1,428.062 km
Speed
7.158 km/s
Apparent Right ascension
08h 15m 15s
Apparent Declination
-36° 41' 38"
Sunlit
Object is in daylight
Visualization observer readout
Local Sidereal Time
21:39:29
Azimuth
85.663° E
Elevation
-73.207°
Doppler factor
1
Orbital elements
Apogee altitude
1,472.424 km
Perigee altitude
1,407.721 km
Semi-major axis
7,818.209 km
Eccentricity
0.00414
Inclination
82.578°
RAAN
284.1703°
Arg. of periapsis
178.0134°
True anomaly
Unknown
Mean anomaly
301.5545°
Eccentric anomaly
Unknown
Mean motion
3.13966 °/min
Orbital period
114.66 mins
BSTAR
0.00011557
Loading maneuver chart data...
Loading SW <> Apogee altitude chart data...
Loading historical data...
Loading historical data...
Loading historical data...
Loading historical data...
Loading historical data...
Loading historical data...
Loading historical data...

SL-14 R/B Visibility forecast

Observer location: undefined°, undefined°

Span
Click to sort rows by Start time (UTC) header in descending order
Start Az.
Max El. time (UTC)
Max El. Az.
Max El.
End time (UTC)
End Az.
12 mins2025-07-01 17:10:06.259Z18.989° NNE2025-07-01 17:16:06.259Z69.553° E22.873°2025-07-01 17:22:06.259Z118.175° SE
15 mins2025-07-01 19:05:06.259Z345.717° N2025-07-01 19:12:06.259Z272.936° WNW42.619°2025-07-01 19:20:06.259Z187.826° SSW
12 mins2025-07-02 06:03:06.259Z131.61° SE2025-07-02 06:09:06.259Z83.338° E24.226°2025-07-02 06:15:06.259Z33.788° NE
15 mins2025-07-02 07:57:06.259Z202.859° SW2025-07-02 08:04:06.259Z278.397° WNW41.718°2025-07-02 08:12:06.259Z0.777° NNE
|